Time,TemperatureF,DewpointF,PressureIn,WindDirection,WindDirectionDegrees,WindSpeedMPH,WindSpeedGustMPH,Humidity,HourlyPrecipIn,Conditions,Clouds,dailyrainin,SoftwareType,DateUTC
2013-06-26 00:05:00,74.6,71.0,30.00,SSE,157,0.0,1.0,88,0.00,,,0.00,weatherlink.com 1.10,2013-06-26 04:05:00,
2013-06-26 00:20:00,74.2,71.0,30.00,South,175,3.0,5.0,89,0.00,,,0.00,weatherlink.com 1.10,2013-06-26 04:20:00,
2013-06-26 00:35:00,74.0,71.0,29.99,SSE,148,2.0,6.0,89,0.00,,,0.00,weatherlink.com 1.10,2013-06-26 04:35:00,
2013-06-26 00:51:00,73.7,70.0,29.98,South,179,0.0,1.0,89,0.00,,,0.00,weatherlink.com 1.10,2013-06-26 04:51:00,
2013-06-26 01:06:00,73.7,71.0,29.98,SSE,156,0.0,5.0,90,0.00,,,0.00,weatherlink.com 1.10,2013-06-26 05:06:00,
2013-06-26 01:21:00,73.8,71.0,29.98,South,174,0.0,3.0,90,0.00,,,0.00,weatherlink.com 1.10,2013-06-26 05:21:00,
2013-06-26 01:36:00,73.7,71.0,29.98,South,181,0.0,3.0,90,0.00,,,0.00,weatherlink.com 1.10,2013-06-26 05:36:00,
2013-06-26 01:51:00,73.8,71.0,29.97,SSE,153,0.0,4.0,90,0.00,,,0.00,weatherlink.com 1.10,2013-06-26 05:51:00,
2013-06-26 02:06:00,73.7,71.0,29.97,SE,133,1.0,3.0,91,0.00,,,0.00,weatherlink.com 1.10,2013-06-26 06:06:00,
2013-06-26 02:21:00,73.5,71.0,29.97,South,179,0.0,1.0,91,0.00,,,0.00,weatherlink.com 1.10,2013-06-26 06:21:00,
2013-06-26 02:36:00,73.2,71.0,29.96,South,174,1.0,2.0,91,0.00,,,0.00,weatherlink.com 1.10,2013-06-26 06:36:00,
2013-06-26 02:51:00,73.0,71.0,29.96,South,191,0.0,2.0,92,0.00,,,0.00,weatherlink.com 1.10,2013-06-26 06:51:00,
2013-06-26 03:06:00,72.8,70.0,29.95,SSE,156,1.0,6.0,92,0.00,,,0.00,weatherlink.com 1.10,2013-06-26 07:06:00,
2013-06-26 03:21:00,72.6,70.0,29.95,SSE,152,0.0,2.0,92,0.00,,,0.00,weatherlink.com 1.10,2013-06-26 07:21:00,
2013-06-26 03:36:00,72.4,70.0,29.95,SW,225,0.0,3.0,93,0.00,,,0.00,weatherlink.com 1.10,2013-06-26 07:36:00,
2013-06-26 03:52:00,72.2,70.0,29.95,SSE,162,0.0,2.0,93,0.00,,,0.00,weatherlink.com 1.10,2013-06-26 07:52:00,
2013-06-26 04:06:00,72.0,70.0,29.94,SSE,149,0.0,3.0,93,0.00,,,0.00,weatherlink.com 1.10,2013-06-26 08:06:00,
2013-06-26 04:21:00,71.9,70.0,29.94,West,278,0.0,3.0,93,0.00,,,0.00,weatherlink.com 1.10,2013-06-26 08:21:00,
2013-06-26 04:36:00,71.7,70.0,29.94,South,184,0.0,1.0,94,0.00,,,0.00,weatherlink.com 1.10,2013-06-26 08:36:00,
2013-06-26 04:51:00,71.6,70.0,29.95,South,186,0.0,1.0,94,0.00,,,0.00,weatherlink.com 1.10,2013-06-26 08:51:00,
2013-06-26 05:06:00,71.5,70.0,29.95,South,186,0.0,1.0,94,0.00,,,0.00,weatherlink.com 1.10,2013-06-26 09:06:00,
2013-06-26 05:21:00,71.3,70.0,29.95,SW,218,0.0,4.0,94,0.00,,,0.00,weatherlink.com 1.10,2013-06-26 09:21:00,
2013-06-26 05:36:00,71.2,69.0,29.96,ESE,109,1.0,1.0,94,0.00,,,0.00,weatherlink.com 1.10,2013-06-26 09:36:00,
2013-06-26 05:51:00,71.1,69.0,29.96,WSW,250,0.0,4.0,94,0.00,,,0.00,weatherlink.com 1.10,2013-06-26 09:51:00,
2013-06-26 06:06:00,71.1,69.0,29.96,WNW,302,0.0,1.0,94,0.00,,,0.00,weatherlink.com 1.10,2013-06-26 10:06:00,
2013-06-26 06:21:00,71.0,69.0,29.97,WSW,240,0.0,1.0,94,0.00,,,0.00,weatherlink.com 1.10,2013-06-26 10:21:00,
2013-06-26 06:36:00,71.3,70.0,29.97,South,169,0.0,3.0,94,0.00,,,0.00,weatherlink.com 1.10,2013-06-26 10:36:00,
2013-06-26 06:51:00,72.0,70.0,29.98,SW,229,0.0,2.0,94,0.00,,,0.00,weatherlink.com 1.10,2013-06-26 10:51:00,
2013-06-26 07:06:00,72.9,71.0,29.98,SSW,201,0.0,3.0,93,0.00,,,0.00,weatherlink.com 1.10,2013-06-26 11:06:00,
2013-06-26 07:21:00,73.8,71.0,29.98,SSE,157,2.0,3.0,92,0.00,,,0.00,weatherlink.com 1.10,2013-06-26 11:21:00,
2013-06-26 07:36:00,74.4,71.0,29.98,SSE,161,2.0,5.0,90,0.00,,,0.00,weatherlink.com 1.10,2013-06-26 11:36:00,
2013-06-26 07:51:00,75.2,72.0,29.98,SW,222,3.0,6.0,89,0.00,,,0.00,weatherlink.com 1.10,2013-06-26 11:51:00,
2013-06-26 08:06:00,75.9,72.0,29.98,SSE,166,2.0,6.0,88,0.00,,,0.00,weatherlink.com 1.10,2013-06-26 12:06:00,
2013-06-26 08:21:00,76.5,72.0,29.98,South,169,2.0,6.0,87,0.00,,,0.00,weatherlink.com 1.10,2013-06-26 12:21:00,
2013-06-26 08:36:00,77.1,72.0,29.98,WSW,246,1.0,6.0,85,0.00,,,0.00,weatherlink.com 1.10,2013-06-26 12:36:00,
2013-06-26 08:51:00,77.6,73.0,29.98,South,171,2.0,9.0,85,0.00,,,0.00,weatherlink.com 1.10,2013-06-26 12:51:00,
2013-06-26 09:06:00,78.3,74.0,29.97,South,173,3.0,8.0,86,0.00,,,0.00,weatherlink.com 1.10,2013-06-26 13:06:00,
2013-06-26 09:21:00,79.7,74.0,29.96,SSW,196,3.0,6.0,82,0.00,,,0.00,weatherlink.com 1.10,2013-06-26 13:21:00,
2013-06-26 09:36:00,80.2,74.0,29.96,South,176,1.0,6.0,81,0.00,,,0.00,weatherlink.com 1.10,2013-06-26 13:36:00,
2013-06-26 09:51:00,80.9,75.0,29.96,SW,234,0.0,5.0,82,0.00,,,0.00,weatherlink.com 1.10,2013-06-26 13:51:00,
2013-06-26 10:22:00,82.8,75.0,29.95,SW,221,0.0,7.0,78,0.00,,,0.00,weatherlink.com 1.10,2013-06-26 14:22:00,
2013-06-26 10:37:00,83.4,76.0,29.95,South,185,3.0,8.0,78,0.00,,,0.00,weatherlink.com 1.10,2013-06-26 14:37:00,
2013-06-26 10:52:00,83.9,76.0,29.94,SSE,156,2.0,8.0,76,0.00,,,0.00,weatherlink.com 1.10,2013-06-26 14:52:00,
2013-06-26 11:07:00,84.7,76.0,29.94,SE,146,4.0,8.0,74,0.00,,,0.00,weatherlink.com 1.10,2013-06-26 15:07:00,
2013-06-26 11:22:00,85.3,76.0,29.94,SE,145,4.0,5.0,73,0.00,,,0.00,weatherlink.com 1.10,2013-06-26 15:22:00,
2013-06-26 11:52:00,86.3,75.0,29.94,SW,233,1.0,7.0,70,0.00,,,0.00,weatherlink.com 1.10,2013-06-26 15:52:00,
2013-06-26 12:07:00,87.1,76.0,29.94,West,268,0.0,6.0,69,0.00,,,0.00,weatherlink.com 1.10,2013-06-26 16:07:00,
2013-06-26 12:37:00,88.1,78.0,29.94,SSE,162,1.0,5.0,71,0.00,,,0.00,weatherlink.com 1.10,2013-06-26 16:37:00,
2013-06-26 12:52:00,87.9,77.0,29.94,West,281,1.0,9.0,69,0.00,,,0.00,weatherlink.com 1.10,2013-06-26 16:52:00,
2013-06-26 13:07:00,88.6,77.0,29.94,ESE,113,2.0,9.0,69,0.00,,,0.00,weatherlink.com 1.10,2013-06-26 17:07:00,
2013-06-26 13:22:00,88.5,77.0,29.93,WSW,244,0.0,8.0,69,0.00,,,0.00,weatherlink.com 1.10,2013-06-26 17:22:00,
2013-06-26 13:37:00,88.1,77.0,29.93,North,352,0.0,4.0,70,0.00,,,0.00,weatherlink.com 1.10,2013-06-26 17:37:00,
2013-06-26 13:52:00,88.7,78.0,29.92,North,359,0.0,8.0,70,0.00,,,0.00,weatherlink.com 1.10,2013-06-26 17:52:00,
2013-06-26 14:07:00,89.2,76.0,29.91,SSW,198,2.0,5.0,66,0.00,,,0.00,weatherlink.com 1.10,2013-06-26 18:07:00,
2013-06-26 14:22:00,89.6,76.0,29.90,South,174,5.0,9.0,64,0.00,,,0.00,weatherlink.com 1.10,2013-06-26 18:22:00,
2013-06-26 14:37:00,90.2,79.0,29.89,NE,46,1.0,6.0,69,0.00,,,0.00,weatherlink.com 1.10,2013-06-26 18:37:00,
2013-06-26 14:52:00,90.7,78.0,29.88,SSE,155,4.0,10.0,66,0.00,,,0.00,weatherlink.com 1.10,2013-06-26 18:52:00,
2013-06-26 15:07:00,89.5,77.0,29.87,SSE,165,5.0,9.0,67,0.00,,,0.00,weatherlink.com 1.10,2013-06-26 19:07:00,
2013-06-26 15:22:00,89.0,77.0,29.87,South,174,6.0,9.0,67,0.00,,,0.00,weatherlink.com 1.10,2013-06-26 19:22:00,
2013-06-26 15:37:00,89.8,76.0,29.87,SSE,148,6.0,9.0,64,0.00,,,0.00,weatherlink.com 1.10,2013-06-26 19:37:00,
2013-06-26 15:52:00,89.7,78.0,29.87,SSW,195,4.0,10.0,68,0.00,,,0.00,weatherlink.com 1.10,2013-06-26 19:52:00,
2013-06-26 16:07:00,91.0,75.0,29.87,SW,231,0.0,5.0,60,0.00,,,0.00,weatherlink.com 1.10,2013-06-26 20:07:00,
2013-06-26 16:22:00,90.1,77.0,29.85,SSW,205,2.0,8.0,65,0.00,,,0.00,weatherlink.com 1.10,2013-06-26 20:22:00,
2013-06-26 16:37:00,89.0,76.0,29.86,SSE,163,1.0,8.0,65,0.00,,,0.00,weatherlink.com 1.10,2013-06-26 20:37:00,
2013-06-26 16:52:00,84.0,71.0,29.92,WNW,288,6.0,19.0,65,0.00,,,0.00,weatherlink.com 1.10,2013-06-26 20:52:00,
2013-06-26 17:07:00,76.1,69.0,29.93,WSW,237,1.0,10.0,79,0.00,,,0.00,weatherlink.com 1.10,2013-06-26 21:07:00,
2013-06-26 17:23:00,71.0,68.0,29.94,West,274,5.0,6.0,89,0.11,,,0.11,weatherlink.com 1.10,2013-06-26 21:23:00,
2013-06-26 17:53:00,69.9,68.0,29.91,NW,324,2.0,3.0,93,0.20,,,0.20,weatherlink.com 1.10,2013-06-26 21:53:00,
2013-06-26 18:08:00,69.9,68.0,29.91,NW,308,0.0,1.0,94,0.19,,,0.20,weatherlink.com 1.10,2013-06-26 22:08:00,
2013-06-26 18:23:00,69.7,68.0,29.91,SE,145,1.0,3.0,94,0.09,,,0.20,weatherlink.com 1.10,2013-06-26 22:23:00,
2013-06-26 18:38:00,69.7,68.0,29.93,SE,145,0.0,2.0,94,0.02,,,0.21,weatherlink.com 1.10,2013-06-26 22:38:00,
2013-06-26 18:53:00,69.8,68.0,29.93,SE,145,0.0,1.0,94,0.02,,,0.22,weatherlink.com 1.10,2013-06-26 22:53:00,
2013-06-26 19:08:00,69.8,68.0,29.94,SE,145,3.0,4.0,95,0.04,,,0.24,weatherlink.com 1.10,2013-06-26 23:08:00,
2013-06-26 19:23:00,69.7,68.0,29.94,SE,128,3.0,5.0,95,0.04,,,0.25,weatherlink.com 1.10,2013-06-26 23:23:00,
2013-06-26 19:38:00,69.7,68.0,29.93,SE,139,1.0,5.0,95,0.05,,,0.26,weatherlink.com 1.10,2013-06-26 23:38:00,
2013-06-26 19:53:00,69.7,68.0,29.94,South,186,1.0,5.0,95,0.04,,,0.26,weatherlink.com 1.10,2013-06-26 23:53:00,
2013-06-26 20:08:00,69.7,68.0,29.93,SE,136,0.0,4.0,95,0.02,,,0.26,weatherlink.com 1.10,2013-06-27 00:08:00,
2013-06-26 20:23:00,69.7,68.0,29.91,SE,131,1.0,4.0,95,0.01,,,0.26,weatherlink.com 1.10,2013-06-27 00:23:00,
2013-06-26 20:38:00,69.7,68.0,29.92,SE,131,0.0,0.0,95,0.00,,,0.26,weatherlink.com 1.10,2013-06-27 00:38:00,
2013-06-26 20:53:00,69.5,68.0,29.92,SE,131,1.0,2.0,95,0.00,,,0.26,weatherlink.com 1.10,2013-06-27 00:53:00,
2013-06-26 21:08:00,69.4,68.0,29.92,SE,131,0.0,2.0,95,0.00,,,0.26,weatherlink.com 1.10,2013-06-27 01:08:00,
2013-06-26 21:23:00,69.4,68.0,29.92,SE,131,0.0,0.0,95,0.00,,,0.26,weatherlink.com 1.10,2013-06-27 01:23:00,
2013-06-26 21:38:00,69.4,68.0,29.91,SE,131,0.0,0.0,95,0.00,,,0.26,weatherlink.com 1.10,2013-06-27 01:38:00,
2013-06-26 21:53:00,69.3,68.0,29.92,SE,131,0.0,1.0,95,0.00,,,0.26,weatherlink.com 1.10,2013-06-27 01:53:00,
2013-06-26 22:08:00,69.2,68.0,29.92,SE,131,0.0,2.0,95,0.00,,,0.26,weatherlink.com 1.10,2013-06-27 02:08:00,
2013-06-26 22:23:00,69.1,68.0,29.92,South,169,2.0,3.0,95,0.00,,,0.26,weatherlink.com 1.10,2013-06-27 02:23:00,
2013-06-26 22:38:00,69.2,68.0,29.92,SSE,161,0.0,2.0,95,0.00,,,0.26,weatherlink.com 1.10,2013-06-27 02:38:00,
2013-06-26 22:53:00,69.1,68.0,29.93,South,184,0.0,2.0,95,0.00,,,0.26,weatherlink.com 1.10,2013-06-27 02:53:00,
2013-06-26 23:08:00,69.1,68.0,29.92,SSE,168,0.0,2.0,95,0.00,,,0.26,weatherlink.com 1.10,2013-06-27 03:08:00,
2013-06-26 23:23:00,69.0,68.0,29.93,SSE,168,0.0,0.0,95,0.00,,,0.26,weatherlink.com 1.10,2013-06-27 03:23:00,
2013-06-26 23:38:00,69.0,68.0,29.92,SSE,168,0.0,0.0,95,0.00,,,0.26,weatherlink.com 1.10,2013-06-27 03:38:00,
2013-06-26 23:53:00,68.9,68.0,29.91,SSE,168,0.0,2.0,95,0.00,,,0.26,weatherlink.com 1.10,2013-06-27 03:53:00,